EW6089 Weather Reports


time (UTC)temp
F
wind
direction
speed
knots
gust
knots
rain 1hr
in
rain 24hr
in
rain mn
in
humidity
%
barometer
mb
20260906214016 72 0.0 2.6 0.00 0.00 0.00 57 1014.9
20260906213017 71 158 0.9 3.5 0.00 0.00 0.00 59 1014.9
20260906212016 72 0.0 2.6 0.00 0.00 0.00 60 1015.0
20260906211037 70 158 0.9 3.5 0.00 0.00 0.00 60 1015.0
20260906210021 71 0.0 0.9 0.00 0.00 0.00 61 1015.0
20260906205016 70 0.0 2.6 0.00 0.00 0.00 62 1015.1
20260906204017 70 158 0.9 4.3 0.00 0.00 0.00 62 1015.2
20260906203016 69 0.0 0.9 0.00 0.00 0.00 60 1015.2
20260906202016 69 0.0 1.7 0.00 0.00 0.00 65 1015.3
20260906201017 68 0.0 1.7 0.00 0.00 0.00 63 1015.3
20260906200016 67 0.0 1.7 0.00 0.00 0.00 65 1015.4
20260906195016 67 0.0 1.7 0.00 0.00 0.00 66 1015.5
20260906194016 66 0.0 0.0 0.00 0.00 0.00 71 1015.7
20260906193057 65 0.0 2.6 0.00 0.00 0.00 71 1015.8
20260906192036 64 0.0 2.6 0.00 0.00 0.00 73 1015.9
20260906191016 63 158 0.9 2.6 0.00 0.00 0.00 73 1016.0
20260906190017 63 158 0.9 2.6 0.00 0.00 0.00 73 1016.1
20260906185016 62 0.0 2.6 0.00 0.00 0.00 77 1016.2
20260906184036 61 0.0 1.7 0.00 0.00 0.00 78 1016.3
20260906183056 61 0.0 1.7 0.00 0.00 0.00 80 1016.3
20260906182016 61 0.0 0.9 0.00 0.00 0.00 82 1016.3
20260906181016 60 158 0.9 4.3 0.00 0.00 0.00 82 1016.3
20260906180015 59 0.0 3.5 0.00 0.00 0.00 84 1016.3
20260906175042 59 158 0.9 2.6 0.00 0.00 0.00 84 1016.4
20260906174017 59 0.0 1.7 0.00 0.00 0.00 84 1016.6
20260906173016 58 158 0.9 1.7 0.00 0.00 0.00 84 1016.7
20260906172016 58 0.0 0.0 0.00 0.00 0.00 84 1016.8
20260906171016 58 0.0 0.0 0.00 0.00 0.00 86 1016.8
20260906170036 57 0.0 0.0 0.00 0.00 0.00 88 1016.8
20260906165017 56 0.0 0.9 0.00 0.00 0.00 89 1016.8
20260906164016 54 0.0 0.0 0.00 0.00 0.00 93 1016.8
20260906163036 53 0.0 0.9 0.00 0.00 0.00 94 1016.9
20260906162016 52 0.0 0.0 0.00 0.00 0.00 97 1016.8
20260906161016 51 0.0 0.0 0.00 0.00 0.00 98 1016.7
20260906160016 51 0.0 0.0 0.00 0.00 0.00 98 1016.7
20260906155016 51 0.0 0.0 0.00 0.00 0.00 98 1016.5
20260906154016 50 0.0 0.0 0.00 0.00 0.00 98 1016.5
20260906153017 49 0.0 0.0 0.00 0.00 0.00 97 1016.4
20260906152016 49 0.0 0.0 0.00 0.00 0.00 97 1016.4
20260906151015 48 0.0 0.0 0.00 0.00 0.00 97 1016.5
20260906150015 48 0.0 0.0 0.00 0.00 0.00 97 1016.5
20260906145016 48 0.0 0.0 0.00 0.00 0.00 97 1016.5
20260906144015 48 0.0 0.0 0.00 0.00 0.00 97 1016.5
20260906143016 48 0.0 0.0 0.00 0.00 0.00 97 1016.5
20260906142016 48 0.0 0.0 0.00 0.00 0.00 96 1016.5
20260906141021 48 0.0 0.0 0.00 0.00 0.00 96 1016.6
20260906140015 48 0.0 0.0 0.00 0.00 0.00 96 1016.5
20260906135016 48 0.0 0.0 0.00 0.00 0.00 96 1016.5
20260906134018 49 0.0 0.0 0.00 0.00 0.00 96 1016.4
20260906133015 49 0.0 0.0 0.00 0.00 0.00 97 1016.5
20260906132023 49 0.0 0.0 0.00 0.00 0.00 97 1016.5
20260906131015 49 0.0 0.0 0.00 0.00 0.00 96 1016.6
20260906130017 49 0.0 0.0 0.00 0.00 0.00 96 1016.5
20260906125015 49 0.0 0.0 0.00 0.00 0.00 96 1016.5
20260906124018 49 0.0 0.0 0.00 0.00 0.00 96 1016.5
20260906123017 49 0.0 0.0 0.00 0.00 0.00 96 1016.4
20260906122019 49 0.0 0.0 0.00 0.00 0.00 96 1016.4
20260906121017 49 0.0 0.0 0.00 0.00 0.00 96 1016.5
20260906120017 50 0.0 0.0 0.00 0.00 0.00 96 1016.6
20260906115017 50 0.0 0.0 0.00 0.00 0.00 96 1016.6
20260906114017 49 0.0 0.0 0.00 0.00 0.00 96 1016.6
20260906113037 49 0.0 0.0 0.00 0.00 0.00 96 1016.5
20260906112017 50 0.0 0.0 0.00 0.00 0.00 96 1016.6
20260906111017 50 0.0 0.0 0.00 0.00 0.00 96 1016.7
20260906110017 50 0.0 0.0 0.00 0.00 0.00 96 1016.8
20260906105017 50 0.0 0.0 0.00 0.00 0.00 96 1016.7
20260906104037 50 0.0 0.0 0.00 0.00 0.00 96 1016.7
20260906103037 50 0.0 0.0 0.00 0.00 0.00 96 1016.7
20260906102017 51 0.0 0.0 0.00 0.00 0.00 96 1016.7
20260906101017 51 0.0 0.0 0.00 0.00 0.00 96 1016.8
20260906100017 51 0.0 0.0 0.00 0.00 0.00 96 1016.7
20260906095017 51 0.0 0.0 0.00 0.00 0.00 96 1016.7
20260906094017 51 0.0 0.0 0.00 0.00 0.00 96 1016.6
20260906093017 51 0.0 0.0 0.00 0.00 0.00 95 1016.5
20260906092017 51 0.0 0.0 0.00 0.00 0.00 95 1016.5
20260906091037 51 0.0 0.0 0.00 0.00 0.00 96 1016.5
20260906090017 51 0.0 0.0 0.00 0.00 0.00 95 1016.5
20260906085017 51 0.0 0.0 0.00 0.00 0.00 95 1016.5
20260906084018 51 0.0 0.0 0.00 0.00 0.00 95 1016.6
20260906083017 52 0.0 0.0 0.00 0.00 0.00 95 1016.7
20260906082017 52 0.0 0.0 0.00 0.00 0.00 95 1016.7
20260906081017 52 0.0 0.0 0.00 0.00 0.00 95 1016.6
20260906080058 52 0.0 0.0 0.00 0.00 0.00 95 1016.7
20260906075017 52 0.0 0.0 0.00 0.00 0.00 94 1016.6
20260906074017 53 0.0 0.0 0.00 0.00 0.00 94 1016.7
20260906073022 53 0.0 0.0 0.00 0.00 0.00 94 1016.7
20260906072038 53 0.0 0.0 0.00 0.00 0.00 94 1016.8
20260906071017 53 0.0 0.0 0.00 0.00 0.00 94 1016.9
20260906070017 54 0.0 0.0 0.00 0.00 0.00 93 1016.9
20260906065017 54 0.0 0.0 0.00 0.00 0.00 93 1016.8
20260906064037 54 0.0 0.0 0.00 0.00 0.00 93 1016.8
20260906063017 54 0.0 0.0 0.00 0.00 0.00 93 1016.9
20260906062037 55 0.0 0.0 0.00 0.00 0.00 93 1016.9
20260906061017 55 0.0 0.0 0.00 0.00 0.00 93 1016.9
20260906060017 55 0.0 0.0 0.00 0.00 0.00 93 1017.0
20260906055017 55 0.0 0.0 0.00 0.00 0.00 93 1017.0
20260906054017 55 0.0 0.0 0.00 0.00 0.00 92 1017.0
20260906053016 55 0.0 0.0 0.00 0.00 0.00 92 1017.0
20260906052016 56 0.0 0.0 0.00 0.00 0.00 91 1017.0
20260906051038 56 0.0 0.0 0.00 0.00 0.00 91 1017.0
20260906050017 56 0.0 0.0 0.00 0.00 0.00 91 1017.1
20260906045016 56 0.0 0.0 0.00 0.00 0.00 90 1017.2
20260906044017 57 0.0 0.0 0.00 0.00 0.00 90 1017.3
20260906043017 57 0.0 0.0 0.00 0.00 0.00 89 1017.3
20260906042036 57 0.0 0.0 0.00 0.00 0.00 89 1017.4
20260906041018 57 0.0 0.0 0.00 0.00 0.00 89 1017.3
20260906040017 58 0.0 0.0 0.00 0.00 0.00 89 1017.4
20260906035017 58 0.0 0.0 0.00 0.00 0.00 88 1017.3
20260906034016 59 0.0 0.0 0.00 0.00 0.00 86 1017.3
20260906033017 60 0.0 0.0 0.00 0.00 0.00 85 1017.1
20260906032017 60 0.0 0.0 0.00 0.00 0.00 85 1017.0
20260906031017 60 0.0 0.0 0.00 0.00 0.00 84 1017.0
20260906030017 61 0.0 0.0 0.00 0.00 0.00 84 1017.0
20260906025037 61 0.0 0.0 0.00 0.00 0.00 83 1017.0
20260906024016 62 0.0 0.0 0.00 0.00 0.00 82 1017.0
20260906023017 62 0.0 0.0 0.00 0.00 0.00 82 1016.9
20260906022017 63 0.0 0.0 0.00 0.00 0.00 81 1016.8
20260906021017 63 0.0 0.0 0.00 0.00 0.00 80 1016.8
20260906020016 64 0.0 0.0 0.00 0.00 0.00 78 1016.8
20260906015016 64 0.0 0.0 0.00 0.00 0.00 78 1016.8
20260906014016 64 0.0 0.0 0.00 0.00 0.00 77 1016.8
20260906013016 64 0.0 0.0 0.00 0.01 0.00 75 1016.7
20260906012016 65 0.0 0.0 0.00 0.02 0.00 74 1016.7
20260906011036 65 0.0 0.0 0.00 0.03 0.00 74 1016.8
20260906010017 65 0.0 0.0 0.00 0.03 0.00 72 1016.8
20260906005022 65 0.0 0.0 0.00 0.04 0.00 71 1016.7
20260906004056 66 0.0 0.0 0.00 0.04 0.00 71 1016.7
20260906003016 66 0.0 0.0 0.00 0.05 0.00 71 1016.7
20260906002037 65 0.0 0.0 0.00 0.08 0.00 71 1016.7
20260906001041 66 0.0 0.0 0.00 0.09 0.00 72 1016.6
20260906000017 65 0.0 0.0 0.00 0.11 0.00 72 1016.6
20260905235016 65 0.0 0.0 0.00 0.13 0.00 74 1016.7
20260905234016 65 0.0 0.0 0.00 0.14 0.00 72 1016.7
20260905233016 65 0.0 0.0 0.00 0.14 0.00 74 1016.8
20260905232016 65 0.0 0.0 0.00 0.14 0.00 75 1016.8
20260905231016 65 0.0 0.0 0.00 0.14 0.00 76 1016.9
20260905230016 65 0.0 0.9 0.00 0.14 0.00 77 1017.0
20260905225016 65 0.0 0.9 0.00 0.14 0.00 78 1017.1
20260905224042 66 0.0 1.7 0.00 0.14 0.00 78 1017.3
20260905223017 67 0.0 0.0 0.00 0.14 0.00 73 1017.2
20260905222016 68 0.0 0.0 0.00 0.14 0.00 70 1017.3
20260905221017 68 0.0 0.9 0.00 0.14 0.00 70 1017.4
20260905220016 68 158 0.9 2.6 0.00 0.14 0.00 64 1017.5
20260905215016 68 0.0 2.6 0.00 0.14 0.00 64 1017.6